This is the latest recevied weather packets stored in our database for station/object DH2PG-6. If no packets are shown the sender has not sent any weather packets the latest 10 day(s).
| Time | Temp. | Humidity | Pressure | Rain* | Wind** | Luminosity | Snow |
|---|---|---|---|---|---|---|---|
| 1788280605 | 20.56° C | 51% | 1017.8 hPa | 0 mm | - | - | - |
| 1788280305 | 20.56° C | 52% | 1017.7 hPa | 0 mm | - | - | - |
| 1788280005 | 20.56° C | 52% | 1017.6 hPa | 0 mm | - | - | - |
| 1788279704 | 20.56° C | 52% | 1017.6 hPa | 0 mm | - | - | - |
| 1788279404 | 20.56° C | 52% | 1017.6 hPa | 0 mm | - | - | - |
| 1788279104 | 21.11° C | 52% | 1017.7 hPa | 0 mm | - | - | - |
| 1788278803 | 21.11° C | 53% | 1017.6 hPa | 0 mm | - | - | - |
| 1788278503 | 21.11° C | 53% | 1017.7 hPa | 0 mm | - | - | - |
| 1788278203 | 21.11° C | 54% | 1017.7 hPa | 0 mm | - | - | - |
| 1788277906 | 20.56° C | 54% | 1017.6 hPa | 0 mm | - | - | - |
| 1788277602 | 20.56° C | 54% | 1017.7 hPa | 0 mm | - | - | - |
| 1788277302 | 20.56° C | 53% | 1017.7 hPa | 0 mm | - | - | - |
| 1788277002 | 20.56° C | 52% | 1017.7 hPa | 0 mm | - | - | - |
| 1788276701 | 20.56° C | 52% | 1017.7 hPa | 0 mm | - | - | - |
| 1788276401 | 21.11° C | 53% | 1017.7 hPa | 0 mm | - | - | - |
| 1788276101 | 20.56° C | 55% | 1017.8 hPa | 0 mm | - | - | - |
| 1788275801 | 20° C | 54% | 1017.7 hPa | 0 mm | - | - | - |
| 1788275500 | 20° C | 54% | 1017.7 hPa | 0 mm | - | - | - |
| 1788275200 | 20° C | 53% | 1017.9 hPa | 0 mm | - | - | - |
| 1788274599 | 20° C | 51% | 1017.8 hPa | 0 mm | - | - | - |
| 1788274299 | 20.56° C | 51% | 1017.9 hPa | 0 mm | - | - | - |
| 1788273999 | 21.11° C | 50% | 1017.9 hPa | 0 mm | - | - | - |
| 1788273398 | 21.11° C | 51% | 1018 hPa | 0 mm | - | - | - |
| 1788273098 | 21.67° C | 50% | 1018 hPa | 0 mm | - | - | - |
| 1788272798 | 21.67° C | 50% | 1017.9 hPa | 0 mm | - | - | - |
* Rain latest hour (hover to see other rain measurements)
** Current wind speed in m/s (hover to see current wind gust speed)